TimeEST,TemperatureF,Dew PointF,Humidity,Sea Level PressureIn,VisibilityMPH,Wind Direction,Wind SpeedMPH,Gust SpeedMPH,PrecipitationIn,Events,Conditions,WindDirDegrees,DateUTC
12:00 AM,41.0,39.2,93,30.14,0.5,Calm,Calm,-,N/A,Fog,Fog,0,2013-01-13 05:00:00
12:53 AM,41.0,39.9,96,30.14,0.5,Calm,Calm,-,N/A,Fog,Fog,0,2013-01-13 05:53:00
1:31 AM,42.8,39.2,87,30.14,0.2,Calm,Calm,-,N/A,Fog,Fog,0,2013-01-13 06:31:00
1:45 AM,41.0,41.0,100,30.14,0.5,Calm,Calm,-,N/A,Fog,Fog,0,2013-01-13 06:45:00
1:53 AM,42.1,39.9,92,30.14,0.5,Calm,Calm,-,N/A,Fog,Fog,0,2013-01-13 06:53:00
2:13 AM,42.8,41.0,93,30.14,0.5,Calm,Calm,-,N/A,Fog,Fog,0,2013-01-13 07:13:00
2:53 AM,41.0,39.9,96,30.13,0.2,Calm,Calm,-,N/A,Fog,Fog,0,2013-01-13 07:53:00
3:53 AM,42.1,41.0,96,30.13,0.5,Calm,Calm,-,N/A,Fog,Fog,0,2013-01-13 08:53:00
4:08 AM,42.8,41.0,93,30.12,0.5,Calm,Calm,-,N/A,Fog,Fog,0,2013-01-13 09:08:00
4:27 AM,42.8,41.0,93,30.11,1.2,SE,3.5,-,N/A,,Overcast,140,2013-01-13 09:27:00
4:32 AM,42.8,39.2,87,30.11,0.8,ESE,4.6,-,N/A,,Overcast,110,2013-01-13 09:32:00
4:53 AM,42.1,41.0,96,30.12,1.0,SW,3.5,-,N/A,,Overcast,220,2013-01-13 09:53:00
5:05 AM,42.8,41.0,93,30.11,2.5,Calm,Calm,-,N/A,,Overcast,0,2013-01-13 10:05:00
5:13 AM,42.8,41.0,93,30.10,1.0,Calm,Calm,-,N/A,,Overcast,0,2013-01-13 10:13:00
5:29 AM,41.0,39.2,93,30.09,2.5,Calm,Calm,-,N/A,,Overcast,0,2013-01-13 10:29:00
5:42 AM,41.0,39.2,93,30.09,1.2,Calm,Calm,-,N/A,,Overcast,0,2013-01-13 10:42:00
5:48 AM,41.0,39.2,93,30.09,2.0,Calm,Calm,-,N/A,,Overcast,0,2013-01-13 10:48:00
5:53 AM,41.0,39.9,96,30.10,4.0,Calm,Calm,-,N/A,,Overcast,0,2013-01-13 10:53:00
6:41 AM,42.8,41.0,93,30.12,1.8,Calm,Calm,-,N/A,,Overcast,0,2013-01-13 11:41:00
6:49 AM,42.8,41.0,93,30.12,0.8,Calm,Calm,-,N/A,,Overcast,0,2013-01-13 11:49:00
6:53 AM,42.1,41.0,96,30.12,0.8,SE,3.5,-,N/A,,Overcast,140,2013-01-13 11:53:00
7:05 AM,42.8,42.8,100,30.12,1.8,Calm,Calm,-,N/A,,Overcast,0,2013-01-13 12:05:00
7:11 AM,42.8,42.8,100,30.12,2.0,Calm,Calm,-,N/A,,Overcast,0,2013-01-13 12:11:00
7:23 AM,42.8,42.8,100,30.13,1.2,Calm,Calm,-,N/A,,Overcast,0,2013-01-13 12:23:00
7:48 AM,42.8,42.8,100,30.14,2.5,Calm,Calm,-,N/A,,Overcast,0,2013-01-13 12:48:00
7:53 AM,44.1,42.1,93,30.14,2.5,Calm,Calm,-,N/A,,Overcast,0,2013-01-13 12:53:00
8:04 AM,44.6,42.8,93,30.14,1.0,Calm,Calm,-,N/A,,Overcast,0,2013-01-13 13:04:00
8:48 AM,44.6,42.8,93,30.14,1.0,Calm,Calm,-,N/A,,Overcast,0,2013-01-13 13:48:00
8:53 AM,44.1,43.0,96,30.15,1.5,South,3.5,-,N/A,,Overcast,190,2013-01-13 13:53:00
9:00 AM,44.6,42.8,93,30.14,4.0,South,3.5,-,N/A,,Overcast,170,2013-01-13 14:00:00
9:12 AM,44.6,42.8,93,30.14,2.5,South,3.5,-,N/A,,Overcast,180,2013-01-13 14:12:00
9:23 AM,44.6,42.8,93,30.14,3.0,Calm,Calm,-,N/A,,Overcast,0,2013-01-13 14:23:00
9:31 AM,44.6,42.8,93,30.14,2.5,Calm,Calm,-,N/A,,Overcast,0,2013-01-13 14:31:00
9:43 AM,44.6,44.6,100,30.14,3.0,South,3.5,-,N/A,,Overcast,170,2013-01-13 14:43:00
9:53 AM,45.0,44.1,97,30.14,2.5,South,4.6,-,N/A,,Overcast,170,2013-01-13 14:53:00
10:09 AM,46.4,44.6,93,30.15,3.0,SSW,5.8,-,N/A,,Overcast,200,2013-01-13 15:09:00
10:53 AM,46.9,45.0,93,30.14,4.0,South,3.5,-,N/A,,Overcast,190,2013-01-13 15:53:00
11:06 AM,46.4,44.6,93,30.13,2.0,South,3.5,-,N/A,,Overcast,190,2013-01-13 16:06:00
11:53 AM,48.0,46.0,93,30.11,2.0,South,4.6,-,N/A,,Overcast,190,2013-01-13 16:53:00
12:53 PM,50.0,46.9,89,30.09,10.0,SW,9.2,-,N/A,,Overcast,230,2013-01-13 17:53:00
1:53 PM,50.0,46.9,89,30.08,10.0,SSW,5.8,-,N/A,,Overcast,210,2013-01-13 18:53:00
2:53 PM,50.0,48.0,93,30.06,7.0,South,8.1,-,N/A,,Overcast,170,2013-01-13 19:53:00
3:53 PM,51.1,48.0,89,30.05,7.0,SSE,6.9,-,N/A,,Mostly Cloudy,160,2013-01-13 20:53:00
4:53 PM,51.1,48.9,92,30.04,10.0,South,6.9,-,N/A,,Overcast,180,2013-01-13 21:53:00
5:53 PM,50.0,46.9,89,30.03,10.0,South,8.1,-,N/A,,Overcast,190,2013-01-13 22:53:00
6:00 PM,50.0,46.4,87,30.02,10.0,South,8.1,-,N/A,,Mostly Cloudy,190,2013-01-13 23:00:00
6:22 PM,50.0,46.4,87,30.02,10.0,South,8.1,-,N/A,,Mostly Cloudy,190,2013-01-13 23:22:00
6:53 PM,50.0,48.0,93,30.01,10.0,SSW,8.1,-,N/A,,Mostly Cloudy,200,2013-01-13 23:53:00
7:40 PM,51.8,48.2,88,30.02,10.0,SSW,10.4,-,N/A,,Overcast,210,2013-01-14 00:40:00
7:53 PM,51.1,48.0,89,30.01,10.0,SSW,10.4,-,N/A,,Overcast,200,2013-01-14 00:53:00
8:53 PM,52.0,48.0,86,30.02,10.0,SW,5.8,-,N/A,,Overcast,220,2013-01-14 01:53:00
9:53 PM,52.0,48.9,89,30.01,10.0,SSW,6.9,-,N/A,,Overcast,200,2013-01-14 02:53:00
10:53 PM,53.1,48.0,83,30.00,10.0,South,9.2,-,N/A,,Overcast,190,2013-01-14 03:53:00
11:17 PM,53.6,48.2,82,30.00,10.0,South,9.2,-,N/A,,Overcast,190,2013-01-14 04:17:00
11:53 PM,53.1,48.9,86,30.01,10.0,SSW,9.2,-,N/A,,Overcast,200,2013-01-14 04:53:00